Regional Weather Roundup
Issued by NWS Green Bay, WI

Home | Current Version | Previous Version | Graphics & Text | Print | Product List | Glossary Off
Versions: 1 2 3 4 5 6 7 8 9 10 11 12 13 14 15 16 17 18 19 20 21 22 23 24 25 26 27 28 29 30 31 32 33 34 35 36 37 38 39 40 41 42 43 44 45 46 47 48 49 50

000
ASUS43 KGRB 290711
RWRGRB

NORTH-CENTRAL AND NORTHEAST WISCONSIN REGIONAL WEATHER ROUNDUP
NATIONAL WEATHER SERVICE GREEN BAY WI
200 AM CDT FRI MAY 29 2015

WIZ005-009-010>012-018-019-290800-
NORTH CENTRAL WISCONSIN

CITY           SKY/WX    TMP DP  RH WIND       PRES   REMARKS
IRONWOOD       MOCLDY    66  55  68 S10       29.92F
MANITOWISH WTR CLOUDY    61  55  80 S6        29.99F
ARBOR VITAE    CLOUDY    63  55  75 SE5       30.00F
EAGLE RIVER    MOCLDY    61  52  73 CALM      30.01F
LAND O LAKES   MOCLDY    63  54  72 S7        30.02F
RHINELANDER    MOCLDY    62  54  74 S5        30.03F
PHILLIPS       PTCLDY    64  54  70 S7        29.98F
ANTIGO         MOCLDY    60  56  87 S8        30.04F
TOMAHAWK       MOCLDY    56  54  91 CALM      30.02F
MERRILL        NOT AVBL
$$

WIZ013-073-290800-
NORTHEAST WISCONSIN

CITY           SKY/WX    TMP DP  RH WIND       PRES   REMARKS
IRON MOUNTAIN  MOCLDY    61  57  87 SE6       30.02F
MARINETTE      MOCLDY    63  52  67 S3        30.03F
OCONTO         MOCLDY    64  57  80 SE5       30.04S
$$

WIZ017-030-035>037-045-290800-
CENTRAL WISCONSIN

CITY           SKY/WX    TMP DP  RH WIND       PRES   REMARKS
MEDFORD        CLOUDY    62  55  76 SE7       30.00F
WAUSAU         CLOUDY    65  55  70 S7        30.01F
MOSINEE        CLOUDY    63  55  77 SE6       30.03S
MARSHFIELD     CLOUDY    65  55  70 S8        30.01S
WISC RAPIDS    CLOUDY    67  54  63 S3        30.02F
STEVENS POINT  CLOUDY    66  53  63 S6        30.03S
WAUPACA        CLOUDY    67  54  63 CALM      30.03F
SHAWANO        CLOUDY    65  54  66 CALM      30.03F
CLINTONVILLE   CLOUDY    63  54  72 CALM      30.03F
$$

WIZ038-039-048-051-290800-
FOX VALLEY

CITY           SKY/WX    TMP DP  RH WIND       PRES   REMARKS
NWS GREEN BAY  CLOUDY    65  55  70 S7        30.04F
APPLETON       CLOUDY    66  52  59 SE13      30.04F
OSHKOSH        CLOUDY    66  54  65 S7        30.03F
FOND DU LAC    CLOUDY    66  55  67 S12       30.04F
$$

WIZ022-050-052-290800-
EAST CENTRAL WISCONSIN

CITY           SKY/WX    TMP DP  RH WIND       PRES   REMARKS
STURGEON BAY   MOCLDY    61  52  72 S10       30.08F
MANITOWOC      CLOUDY    60  55  83 S9        30.07F
SHEBOYGAN      CLOUDY    58  53  84 S5        30.07F
$$

LMZ563-521-522-541>543-290800-
LAKESHORE

STATION/POSITION TIME  TEMP    WIND        PRES    VSBY  WAVE
                       AIR SEA DIR/SP/G                  HT/PER
                 (UTC) (F)     (DEG/KT/KT) (MB)    (MI)  (FT/S)
SHEBOYGAN LKSHOR 0700   57     190/  6/  7 1018.4F
KEWAUNEE LKSHORE 0600   49     160/  5/  6 1017.8S
NORTHPORT PIER   0600   59     170/  7/ 11 1018.3S
N MID LAKE BUOY  0650   45 36  180/  2/  2 1018.7F         1/ 4
SISTER BAY LKSHO 0618   56     150/ 10/ 12   N/A
CHAMBERS ISLAND  0640   61     170/  3/  6 1017.6F
MENOMINEE LKSHOR 0600   65     170/  5/  6 1018.2F
$$


USA.gov is the U.S. government's official web portal to all federal, state and local government web resources and services.